Time,TemperatureF,DewpointF,PressureIn,WindDirection,WindDirectionDegrees,WindSpeedMPH,WindSpeedGustMPH,Humidity,HourlyPrecipIn,Conditions,Clouds,dailyrainin,SolarRadiationWatts/m^2,SoftwareType,DateUTC
2013-07-01 00:01:00,60.0,58.0,-100.00,West,269,0.0,0.0,92,0.00,,,0.00,0.000000,,2013-07-01 05:01:00,
2013-07-01 00:33:00,57.0,55.0,-100.00,ENE,71,0.0,2.0,93,0.00,,,0.00,0.000000,,2013-07-01 05:33:00,
2013-07-01 00:42:00,57.0,55.0,-100.00,ENE,71,0.0,2.0,93,0.00,,,0.00,0.000000,,2013-07-01 05:42:00,
2013-07-01 00:52:00,57.0,55.0,-100.00,ENE,71,0.0,2.0,93,0.00,,,0.00,0.000000,,2013-07-01 05:52:00,
2013-07-01 01:02:00,57.0,55.0,-100.00,ENE,71,0.0,2.0,93,0.00,,,0.00,0.000000,,2013-07-01 06:02:00,
2013-07-01 01:33:00,54.0,53.0,-100.00,ENE,63,0.0,2.0,95,0.00,,,0.00,0.000000,,2013-07-01 06:33:00,
2013-07-01 01:43:00,54.0,53.0,-100.00,ENE,63,0.0,2.0,95,0.00,,,0.00,0.000000,,2013-07-01 06:43:00,
2013-07-01 01:53:00,54.0,53.0,-100.00,ENE,63,0.0,2.0,95,0.00,,,0.00,0.000000,,2013-07-01 06:53:00,
2013-07-01 02:01:00,54.0,53.0,-100.00,ENE,63,0.0,2.0,95,0.00,,,0.00,0.000000,,2013-07-01 07:01:00,
2013-07-01 02:33:00,53.0,52.0,-100.00,NE,48,0.0,1.0,97,0.00,,,0.00,0.000000,,2013-07-01 07:33:00,
2013-07-01 02:43:00,53.0,52.0,-100.00,NE,48,0.0,1.0,97,0.00,,,0.00,0.000000,,2013-07-01 07:43:00,
2013-07-01 02:53:00,53.0,52.0,-100.00,NE,48,0.0,1.0,97,0.00,,,0.00,0.000000,,2013-07-01 07:53:00,
2013-07-01 03:01:00,53.0,52.0,-100.00,NE,48,0.0,1.0,97,0.00,,,0.00,0.000000,,2013-07-01 08:01:00,
2013-07-01 03:33:00,52.0,51.0,-100.00,NNE,21,0.0,0.0,98,0.00,,,0.00,0.000000,,2013-07-01 08:33:00,
2013-07-01 03:43:00,52.0,51.0,-100.00,NNE,21,0.0,0.0,98,0.00,,,0.00,0.000000,,2013-07-01 08:43:00,
2013-07-01 03:52:00,52.0,51.0,-100.00,NNE,21,0.0,0.0,98,0.00,,,0.00,0.000000,,2013-07-01 08:52:00,
2013-07-01 04:02:00,52.0,51.0,-100.00,NNE,21,0.0,0.0,98,0.00,,,0.00,0.000000,,2013-07-01 09:02:00,
2013-07-01 04:34:00,51.0,50.0,-100.00,NE,47,0.0,2.0,98,0.00,,,0.00,0.000000,,2013-07-01 09:34:00,
2013-07-01 04:43:00,51.0,50.0,-100.00,NE,47,0.0,2.0,98,0.00,,,0.00,0.000000,,2013-07-01 09:43:00,
2013-07-01 04:53:00,51.0,50.0,-100.00,NE,47,0.0,2.0,98,0.00,,,0.00,0.000000,,2013-07-01 09:53:00,
2013-07-01 05:03:00,51.0,50.0,-100.00,NE,47,0.0,2.0,98,0.00,,,0.00,0.000000,,2013-07-01 10:03:00,
2013-07-01 05:33:00,50.0,49.0,-100.00,NE,50,0.0,2.0,98,0.00,,,-99.99,0.000000,,2013-07-01 10:33:00,
2013-07-01 05:43:00,50.0,49.0,-100.00,NE,50,0.0,2.0,98,0.00,,,-99.99,0.000000,,2013-07-01 10:43:00,
2013-07-01 05:52:00,50.0,49.0,-100.00,NE,50,0.0,2.0,98,0.00,,,-99.99,0.000000,,2013-07-01 10:52:00,
2013-07-01 06:02:00,50.0,49.0,-100.00,NE,50,0.0,2.0,98,0.00,,,-99.99,0.000000,,2013-07-01 11:02:00,
2013-07-01 06:33:00,50.0,49.0,-100.00,NE,41,0.0,2.0,98,0.00,,,0.00,9.000000,,2013-07-01 11:33:00,
2013-07-01 06:43:00,50.0,49.0,-100.00,NE,41,0.0,2.0,98,0.00,,,0.00,9.000000,,2013-07-01 11:43:00,
2013-07-01 06:52:00,50.0,49.0,-100.00,NE,41,0.0,2.0,98,0.00,,,0.00,9.000000,,2013-07-01 11:52:00,
2013-07-01 07:01:00,50.0,49.0,-100.00,NE,41,0.0,2.0,98,0.00,,,0.00,9.000000,,2013-07-01 12:01:00,
2013-07-01 07:33:00,58.0,56.0,-100.00,North,357,0.0,0.0,93,0.00,,,0.00,88.000000,,2013-07-01 12:33:00,
2013-07-01 07:43:00,58.0,56.0,-100.00,North,357,0.0,0.0,93,0.00,,,0.00,88.000000,,2013-07-01 12:43:00,
2013-07-01 07:53:00,58.0,56.0,-100.00,North,357,0.0,0.0,93,0.00,,,0.00,88.000000,,2013-07-01 12:53:00,
2013-07-01 08:02:00,58.0,56.0,-100.00,North,357,0.0,0.0,93,0.00,,,0.00,88.000000,,2013-07-01 13:02:00,
2013-07-01 08:33:00,67.0,58.0,-100.00,NW,321,2.0,4.0,72,0.00,,,0.00,242.000000,,2013-07-01 13:33:00,
2013-07-01 08:43:00,67.0,58.0,-100.00,NW,321,2.0,4.0,72,0.00,,,0.00,242.000000,,2013-07-01 13:43:00,
2013-07-01 08:53:00,67.0,58.0,-100.00,NW,321,2.0,4.0,72,0.00,,,0.00,242.000000,,2013-07-01 13:53:00,
2013-07-01 09:01:00,67.0,58.0,-100.00,NW,321,2.0,4.0,72,0.00,,,0.00,242.000000,,2013-07-01 14:01:00,
2013-07-01 09:34:00,74.0,57.0,-100.00,NE,35,4.0,6.0,56,0.00,,,0.00,444.000000,,2013-07-01 14:34:00,
2013-07-01 09:43:00,74.0,57.0,-100.00,NE,35,4.0,6.0,56,0.00,,,0.00,444.000000,,2013-07-01 14:43:00,
2013-07-01 09:53:00,74.0,57.0,-100.00,NE,35,4.0,6.0,56,0.00,,,0.00,444.000000,,2013-07-01 14:53:00,
2013-07-01 10:02:00,74.0,57.0,-100.00,NE,35,4.0,6.0,56,0.00,,,0.00,444.000000,,2013-07-01 15:02:00,
2013-07-01 10:34:00,78.0,56.0,-100.00,North,2,4.0,6.0,47,0.00,,,0.00,638.000000,,2013-07-01 15:34:00,
2013-07-01 10:43:00,78.0,56.0,-100.00,North,2,4.0,6.0,47,0.00,,,0.00,638.000000,,2013-07-01 15:43:00,
2013-07-01 10:53:00,78.0,56.0,-100.00,North,2,4.0,6.0,47,0.00,,,0.00,638.000000,,2013-07-01 15:53:00,
2013-07-01 11:01:00,78.0,56.0,-100.00,North,2,4.0,6.0,47,0.00,,,0.00,638.000000,,2013-07-01 16:01:00,
2013-07-01 11:33:00,80.0,58.0,-100.00,North,11,4.0,8.0,47,0.00,,,0.00,816.000000,,2013-07-01 16:33:00,
2013-07-01 11:44:00,80.0,58.0,-100.00,North,11,4.0,8.0,47,0.00,,,0.00,816.000000,,2013-07-01 16:44:00,
2013-07-01 11:53:00,80.0,58.0,-100.00,North,11,4.0,8.0,47,0.00,,,0.00,816.000000,,2013-07-01 16:53:00,
2013-07-01 12:02:00,80.0,58.0,-100.00,North,11,4.0,8.0,47,0.00,,,0.00,816.000000,,2013-07-01 17:02:00,
2013-07-01 12:34:00,82.0,52.0,-100.00,NE,39,5.0,12.0,35,0.00,,,0.00,953.000000,,2013-07-01 17:34:00,
2013-07-01 12:43:00,82.0,52.0,-100.00,NE,39,5.0,12.0,35,0.00,,,0.00,953.000000,,2013-07-01 17:43:00,
2013-07-01 12:53:00,82.0,52.0,-100.00,NE,39,5.0,12.0,35,0.00,,,0.00,953.000000,,2013-07-01 17:53:00,
2013-07-01 13:02:00,82.0,52.0,-100.00,NE,39,5.0,12.0,35,0.00,,,0.00,953.000000,,2013-07-01 18:02:00,
2013-07-01 13:33:00,82.0,49.0,-100.00,North,5,5.0,12.0,32,0.00,,,0.00,865.000000,,2013-07-01 18:33:00,
2013-07-01 13:44:00,82.0,49.0,-100.00,North,5,5.0,12.0,32,0.00,,,0.00,865.000000,,2013-07-01 18:44:00,
2013-07-01 13:53:00,82.0,49.0,-100.00,North,5,5.0,12.0,32,0.00,,,0.00,865.000000,,2013-07-01 18:53:00,
2013-07-01 14:02:00,82.0,49.0,-100.00,North,5,5.0,12.0,32,0.00,,,0.00,865.000000,,2013-07-01 19:02:00,
2013-07-01 14:34:00,81.0,50.0,-100.00,North,355,5.0,10.0,34,0.00,,,0.00,505.000000,,2013-07-01 19:34:00,
2013-07-01 14:44:00,81.0,50.0,-100.00,North,355,5.0,10.0,34,0.00,,,0.00,505.000000,,2013-07-01 19:44:00,
2013-07-01 14:53:00,81.0,50.0,-100.00,North,355,5.0,10.0,34,0.00,,,0.00,505.000000,,2013-07-01 19:53:00,
2013-07-01 15:02:00,81.0,50.0,-100.00,North,355,5.0,10.0,34,0.00,,,0.00,505.000000,,2013-07-01 20:02:00,
2013-07-01 15:34:00,83.0,51.0,-100.00,NE,36,6.0,13.0,33,0.00,,,0.00,971.000000,,2013-07-01 20:34:00,
2013-07-01 15:43:00,83.0,51.0,-100.00,NE,36,6.0,13.0,33,0.00,,,0.00,971.000000,,2013-07-01 20:43:00,
2013-07-01 15:52:00,83.0,51.0,-100.00,NE,36,6.0,13.0,33,0.00,,,0.00,971.000000,,2013-07-01 20:52:00,
2013-07-01 16:02:00,83.0,51.0,-100.00,NE,36,6.0,13.0,33,0.00,,,0.00,971.000000,,2013-07-01 21:02:00,
2013-07-01 16:34:00,84.0,53.0,-100.00,ENE,75,5.0,11.0,34,0.00,,,0.00,902.000000,,2013-07-01 21:34:00,
2013-07-01 16:44:00,84.0,53.0,-100.00,ENE,75,5.0,11.0,34,0.00,,,0.00,902.000000,,2013-07-01 21:44:00,
2013-07-01 16:53:00,84.0,53.0,-100.00,ENE,75,5.0,11.0,34,0.00,,,0.00,902.000000,,2013-07-01 21:53:00,
2013-07-01 17:01:00,84.0,53.0,-100.00,ENE,75,5.0,11.0,34,0.00,,,0.00,902.000000,,2013-07-01 22:01:00,
2013-07-01 17:33:00,83.0,52.0,-100.00,NE,49,6.0,10.0,34,0.00,,,0.00,539.000000,,2013-07-01 22:33:00,
2013-07-01 17:43:00,83.0,52.0,-100.00,NE,49,6.0,10.0,34,0.00,,,0.00,539.000000,,2013-07-01 22:43:00,
2013-07-01 17:53:00,83.0,52.0,-100.00,NE,49,6.0,10.0,34,0.00,,,0.00,539.000000,,2013-07-01 22:53:00,
2013-07-01 18:01:00,83.0,52.0,-100.00,NE,49,6.0,10.0,34,0.00,,,0.00,539.000000,,2013-07-01 23:01:00,
2013-07-01 18:33:00,81.0,50.0,-100.00,NE,53,5.0,10.0,34,0.00,,,0.00,571.000000,,2013-07-01 23:33:00,
2013-07-01 18:44:00,81.0,50.0,-100.00,NE,53,5.0,10.0,34,0.00,,,0.00,571.000000,,2013-07-01 23:44:00,
2013-07-01 18:53:00,81.0,50.0,-100.00,NE,53,5.0,10.0,34,0.00,,,0.00,571.000000,,2013-07-01 23:53:00,
2013-07-01 19:01:00,81.0,50.0,-100.00,NE,53,5.0,10.0,34,0.00,,,0.00,571.000000,,2013-07-02 00:01:00,
2013-07-01 19:34:00,81.0,53.0,-100.00,ENE,59,3.0,9.0,38,0.00,,,0.00,370.000000,,2013-07-02 00:34:00,
2013-07-01 19:43:00,81.0,53.0,-100.00,ENE,59,3.0,9.0,38,0.00,,,0.00,370.000000,,2013-07-02 00:43:00,
2013-07-01 19:53:00,81.0,53.0,-100.00,ENE,59,3.0,9.0,38,0.00,,,0.00,370.000000,,2013-07-02 00:53:00,
2013-07-01 20:01:00,81.0,53.0,-100.00,ENE,59,3.0,9.0,38,0.00,,,0.00,370.000000,,2013-07-02 01:01:00,
2013-07-01 20:33:00,78.0,58.0,-100.00,NE,44,2.0,5.0,50,0.00,,,0.00,189.000000,,2013-07-02 01:33:00,
2013-07-01 20:43:00,78.0,58.0,-100.00,NE,44,2.0,5.0,50,0.00,,,0.00,189.000000,,2013-07-02 01:43:00,
2013-07-01 20:53:00,78.0,58.0,-100.00,NE,44,2.0,5.0,50,0.00,,,0.00,189.000000,,2013-07-02 01:53:00,
2013-07-01 21:02:00,78.0,58.0,-100.00,NE,44,2.0,5.0,50,0.00,,,0.00,189.000000,,2013-07-02 02:02:00,
2013-07-01 21:34:00,69.0,60.0,-100.00,WNW,302,0.0,2.0,72,0.00,,,0.00,43.000000,,2013-07-02 02:34:00,
2013-07-01 21:43:00,69.0,60.0,-100.00,WNW,302,0.0,2.0,72,0.00,,,0.00,43.000000,,2013-07-02 02:43:00,
2013-07-01 21:53:00,69.0,60.0,-100.00,WNW,302,0.0,2.0,72,0.00,,,0.00,43.000000,,2013-07-02 02:53:00,
2013-07-01 22:01:00,69.0,60.0,-100.00,WNW,302,0.0,2.0,72,0.00,,,0.00,43.000000,,2013-07-02 03:01:00,
2013-07-01 22:33:00,62.0,58.0,-100.00,North,355,0.0,0.0,87,0.00,,,0.00,2.000000,,2013-07-02 03:33:00,
2013-07-01 22:43:00,62.0,58.0,-100.00,North,355,0.0,0.0,87,0.00,,,0.00,2.000000,,2013-07-02 03:43:00,
2013-07-01 22:53:00,62.0,58.0,-100.00,North,355,0.0,0.0,87,0.00,,,0.00,2.000000,,2013-07-02 03:53:00,
2013-07-01 23:02:00,62.0,58.0,-100.00,North,355,0.0,0.0,87,0.00,,,0.00,2.000000,,2013-07-02 04:02:00,
2013-07-01 23:32:00,59.0,57.0,-100.00,East,98,1.0,4.0,93,0.00,,,0.00,0.000000,,2013-07-02 04:32:00,
2013-07-01 23:42:00,59.0,57.0,-100.00,East,98,1.0,4.0,93,0.00,,,0.00,0.000000,,2013-07-02 04:42:00,
2013-07-01 23:53:00,59.0,57.0,-100.00,East,98,1.0,4.0,93,0.00,,,0.00,0.000000,,2013-07-02 04:53:00,